Location: ??
(35.1714°N, 128.2806°E)
Time: 14:01:39
(UTC+00:00)

Cosmos 2098 Rocket - Pass Details

Date: 29 October 2020
Orbit: 366 x 1184 km, 82.9° (Epoch: 30 November)

Event Time Altitude Azimuth Distance (km) Brightness Sun altitude
Rises 20:38:35 0° 181° (S) 3,798 7.2 -14.4°
Reaches altitude 10° 20:41:23 10° 179° (S) 2,743 6.5 -13.8°
Maximum altitude 20:47:38 77° 95° (E) 870 3.9 -12.5°
Drops below altitude 10° 20:52:38 10° 10° (N) 2,206 5.9 -11.5°
Sets 20:54:42 0° 9° (N) 3,010 6.6 -11.1°
